TimeCDT,TemperatureF,Dew PointF,Humidity,Sea Level PressureIn,VisibilityMPH,Wind Direction,Wind SpeedMPH,Gust SpeedMPH,PrecipitationIn,Events,Conditions,WindDirDegrees,DateUTC
12:15 AM,43.0,33.3,69,30.11,10.0,SSE,6.9,-,N/A,,Clear,160,2013-03-14 05:15:00
12:35 AM,43.3,33.4,68,30.11,10.0,South,6.9,-,N/A,,Clear,170,2013-03-14 05:35:00
12:55 AM,44.6,33.8,66,30.11,10.0,South,5.8,-,N/A,,Clear,180,2013-03-14 05:55:00
1:15 AM,42.3,33.4,71,30.11,10.0,South,3.5,-,N/A,,Clear,190,2013-03-14 06:15:00
1:35 AM,42.3,33.3,70,30.10,10.0,Calm,Calm,-,N/A,,Clear,0,2013-03-14 06:35:00
1:55 AM,41.9,33.1,71,30.10,10.0,WSW,5.8,-,N/A,,Clear,240,2013-03-14 06:55:00
2:15 AM,43.3,32.4,65,30.09,10.0,WSW,4.6,-,N/A,,Clear,240,2013-03-14 07:15:00
2:35 AM,43.7,32.0,63,30.08,10.0,West,5.8,-,N/A,,Clear,260,2013-03-14 07:35:00
2:55 AM,44.4,32.0,62,30.08,10.0,West,3.5,-,N/A,,Clear,260,2013-03-14 07:55:00
3:15 AM,40.5,31.5,70,30.07,10.0,West,3.5,-,N/A,,Clear,270,2013-03-14 08:15:00
3:35 AM,39.2,31.6,74,30.07,10.0,WNW,3.5,-,N/A,,Clear,290,2013-03-14 08:35:00
3:55 AM,37.6,31.1,77,30.07,10.0,West,4.6,-,N/A,,Clear,280,2013-03-14 08:55:00
4:15 AM,37.0,30.7,78,30.06,10.0,West,4.6,-,N/A,,Clear,270,2013-03-14 09:15:00
4:35 AM,36.7,31.8,83,30.06,10.0,West,6.9,-,N/A,,Clear,280,2013-03-14 09:35:00
4:55 AM,39.2,32.4,76,30.06,10.0,WNW,8.1,-,N/A,,Clear,290,2013-03-14 09:55:00
5:15 AM,38.3,32.2,79,30.06,10.0,WNW,9.2,-,N/A,,Clear,300,2013-03-14 10:15:00
5:35 AM,39.4,32.4,76,30.06,10.0,WNW,10.4,-,N/A,,Clear,290,2013-03-14 10:35:00
5:55 AM,39.2,32.5,77,30.06,10.0,West,11.5,-,N/A,,Clear,280,2013-03-14 10:55:00
6:15 AM,40.1,33.3,77,30.07,10.0,West,12.7,-,N/A,,Clear,280,2013-03-14 11:15:00
6:35 AM,40.8,34.0,77,30.07,10.0,West,13.8,-,N/A,,Clear,280,2013-03-14 11:35:00
6:55 AM,41.5,34.7,77,30.08,10.0,WNW,12.7,-,N/A,,Clear,290,2013-03-14 11:55:00
7:15 AM,41.0,34.3,77,30.08,10.0,WNW,11.5,-,N/A,,Clear,290,2013-03-14 12:15:00
7:35 AM,40.6,34.0,77,30.10,10.0,WNW,9.2,-,N/A,,Clear,290,2013-03-14 12:35:00
7:55 AM,40.5,34.0,78,30.11,10.0,WNW,11.5,-,N/A,,Clear,290,2013-03-14 12:55:00
8:15 AM,40.5,34.0,78,30.12,10.0,WNW,13.8,-,N/A,,Clear,290,2013-03-14 13:15:00
8:35 AM,40.8,34.2,77,30.12,10.0,WNW,13.8,-,N/A,,Clear,290,2013-03-14 13:35:00
8:55 AM,42.1,34.7,75,30.13,10.0,WNW,12.7,-,N/A,,Clear,290,2013-03-14 13:55:00
9:15 AM,43.5,35.2,73,30.14,10.0,WNW,11.5,-,N/A,,Clear,290,2013-03-14 14:15:00
9:35 AM,45.0,35.2,69,30.15,10.0,WNW,11.5,-,N/A,,Clear,300,2013-03-14 14:35:00
9:55 AM,46.4,35.6,66,30.15,10.0,WNW,8.1,-,N/A,,Clear,300,2013-03-14 14:55:00
10:15 AM,49.6,36.1,60,30.16,10.0,WNW,11.5,-,N/A,,Clear,300,2013-03-14 15:15:00
10:35 AM,53.1,36.7,54,30.16,10.0,WNW,10.4,-,N/A,,Clear,300,2013-03-14 15:35:00
10:55 AM,55.4,37.4,51,30.17,10.0,WNW,10.4,-,N/A,,Clear,290,2013-03-14 15:55:00
11:15 AM,58.5,37.8,46,30.17,10.0,WNW,8.1,-,N/A,,Clear,300,2013-03-14 16:15:00
11:35 AM,61.7,36.9,40,30.18,10.0,WNW,8.1,-,N/A,,Clear,300,2013-03-14 16:35:00
11:55 AM,65.7,33.6,30,30.18,10.0,NNW,9.2,-,N/A,,Clear,330,2013-03-14 16:55:00
12:15 PM,66.9,31.8,27,30.18,10.0,North,5.8,-,N/A,,Clear,10,2013-03-14 17:15:00
12:35 PM,68.4,31.6,26,30.18,10.0,NNW,5.8,-,N/A,,Clear,330,2013-03-14 17:35:00
12:55 PM,69.3,31.8,25,30.17,10.0,NE,5.8,-,N/A,,Clear,40,2013-03-14 17:55:00
1:15 PM,69.8,32.2,25,30.17,10.0,North,3.5,-,N/A,,Clear,10,2013-03-14 18:15:00
1:35 PM,70.7,32.2,24,30.17,10.0,NNW,11.5,-,N/A,,Clear,330,2013-03-14 18:35:00
1:55 PM,70.3,31.5,24,30.16,10.0,East,4.6,-,N/A,,Clear,90,2013-03-14 18:55:00
2:15 PM,70.7,31.5,23,30.15,10.0,NNE,3.5,-,N/A,,Clear,20,2013-03-14 19:15:00
2:35 PM,70.7,31.5,23,30.13,10.0,North,4.6,-,N/A,,Clear,360,2013-03-14 19:35:00
2:55 PM,71.2,31.1,23,30.13,10.0,Calm,Calm,-,N/A,,Clear,0,2013-03-14 19:55:00
3:15 PM,71.8,30.4,22,30.13,10.0,West,8.1,-,N/A,,Clear,270,2013-03-14 20:15:00
3:35 PM,72.1,30.7,22,30.12,10.0,WNW,4.6,-,N/A,,Clear,290,2013-03-14 20:35:00
3:55 PM,72.1,30.2,21,30.11,10.0,Calm,Calm,-,N/A,,Clear,0,2013-03-14 20:55:00
4:15 PM,73.0,30.2,21,30.10,10.0,NNW,6.9,-,N/A,,Clear,340,2013-03-14 21:15:00
4:35 PM,73.4,30.2,20,30.10,10.0,WNW,4.6,-,N/A,,Clear,290,2013-03-14 21:35:00
4:55 PM,73.6,30.9,21,30.10,10.0,NW,10.4,18.4,N/A,,Clear,320,2013-03-14 21:55:00
5:15 PM,72.9,30.9,21,30.10,10.0,NNW,3.5,-,N/A,,Clear,330,2013-03-14 22:15:00
5:35 PM,73.0,30.0,20,30.10,10.0,NNW,4.6,-,N/A,,Clear,330,2013-03-14 22:35:00
5:55 PM,72.9,30.0,21,30.08,10.0,Calm,Calm,-,N/A,,Clear,0,2013-03-14 22:55:00
6:15 PM,72.5,30.9,22,30.08,5.0,WNW,4.6,-,N/A,,Haze,290,2013-03-14 23:15:00
6:35 PM,72.5,30.2,21,30.08,10.0,NNW,3.5,-,N/A,,Clear,330,2013-03-14 23:35:00
6:55 PM,71.1,32.7,24,30.08,4.0,Calm,Calm,-,N/A,,Haze,0,2013-03-14 23:55:00
7:15 PM,69.8,34.3,27,30.08,2.0,Calm,Calm,-,N/A,,Haze,0,2013-03-15 00:15:00
7:35 PM,68.0,32.5,27,30.08,4.0,East,3.5,-,N/A,,Haze,100,2013-03-15 00:35:00
7:55 PM,66.6,31.1,27,30.07,10.0,SE,4.6,-,N/A,,Clear,130,2013-03-15 00:55:00
8:15 PM,64.8,30.9,28,30.08,10.0,Calm,Calm,-,N/A,,Clear,0,2013-03-15 01:15:00
8:35 PM,61.3,32.2,33,30.07,10.0,SSE,5.8,-,N/A,,Clear,150,2013-03-15 01:35:00
8:55 PM,60.8,32.0,34,30.07,10.0,SSE,4.6,-,N/A,,Clear,160,2013-03-15 01:55:00
9:15 PM,57.4,34.3,42,30.06,10.0,SSE,5.8,-,N/A,,Clear,150,2013-03-15 02:15:00
9:35 PM,57.7,33.1,39,30.06,10.0,SSE,8.1,-,N/A,,Clear,150,2013-03-15 02:35:00
9:55 PM,57.2,34.0,42,30.05,10.0,SE,5.8,-,N/A,,Clear,140,2013-03-15 02:55:00
10:15 PM,56.3,33.8,43,30.04,10.0,SSE,8.1,-,N/A,,Clear,150,2013-03-15 03:15:00
10:35 PM,53.2,34.7,49,30.05,10.0,SSE,6.9,-,N/A,,Clear,160,2013-03-15 03:35:00
10:55 PM,51.8,35.2,53,30.05,10.0,SSE,6.9,-,N/A,,Clear,160,2013-03-15 03:55:00
11:15 PM,52.9,35.4,52,30.04,10.0,SSE,10.4,-,N/A,,Clear,160,2013-03-15 04:15:00
11:35 PM,54.9,35.6,48,30.04,10.0,South,10.4,-,N/A,,Clear,180,2013-03-15 04:35:00
11:55 PM,53.8,35.6,50,30.03,10.0,South,12.7,-,N/A,,Clear,170,2013-03-15 04:55:00